Find Starlink 5628

NORAD ID: 55466 Int'l Des: 2023-015 Owner: SPXS Country: US Constellation: starlink operational
LEOCIRCULAR

現在のビュー

3D地球を読み込み中...

About Starlink 5628

Starlink 5628 (NORAD 55466) is a starlink constellation satellite (v1.5) launched Feb 2, 2023 by SPXS of US. It operates in LEO, CIRCULAR orbit with a mass of 305.00 kg.

Starlink 5628について

説明を読み込み中...

次回通過

Passes for default location (London). Set your location on the main map for personalized predictions.

高度履歴

Loading altitude history...

軌道要素

1 55466U 23015T 26167.18161689 -.00001618 00000-0 -49309-4 0 9996
2 55466 43.0018 132.6102 0001021 249.2248 110.8494 15.27560651185788
Epoch: Jun 16, 2026 • Age: 9 hours

現在のステータス

高度 493.5 km
速度 7.62 km/s
衛星直下点 -37.62°S, 98.02°W
打ち上げ日 Feb 2, 2023
運用期間 3.3 years
タイプ internet

技術仕様

分類 Payload
質量 305.00 kg
乾燥質量 290.00 kg
総質量 305.00 kg
長さ 0.20 m
直径 2.80 m
スパン 9.00 m
形状 Box + pan
製造者 SPXS
バスタイプ Starlink
フェーズステータス In Orbit
所有者/国 SPXS/US

Most Searched